[[{"header":{"parameterUnit":"m.s-1","parameterCategory":1,"la1":30.2991,"la2":30.254,"lo1":-89.0895,"lo2":-89.0444,"dy":0.0017,"dx":0.0017,"nx":28,"ny":28,"refTime":"2025-01-23T03:00:00:Z","depth":0,"parameterNumber":2,"parameterNumberName":"U-component_of_WINDS"},"data":[0,0,0,0,0,0,0,0,0,0,0,0,0,0,0,0,0,0,0,0,0,0,0,0,0,0,0,0,0,0,0,0,0,0,0,0,0,0,0,0,0,0,0,0,0,0,0,0,0,0,0,0,0,0,0,0,0,0,-0.496,-0.4961,0,-0.5027,-0.5027,-0.5028,-0.5033,-0.5032,-0.5031,-0.503,-0.5099,-0.5101,-0.5103,0,0,0,0,0,0,0,0,0,0,0,0,0,-0.4836,-0.4838,-0.496,-0.4961,-0.4962,-0.5026,-0.5027,-0.5028,-0.5033,-0.5032,-0.5031,-0.503,-0.5098,-0.5101,-0.5104,0,0,0,0,0,0,0,0,0,0,0,0,0,-0.4895,-0.4839,-0.496,-0.4972,-0.4974,-0.5026,-0.5027,-0.5028,-0.5033,-0.5032,-0.5031,-0.503,-0.5097,-0.51,-0.5104,-0.5149,0,0,-0.5116,-0.5117,0,0,0,0,0,0,0,0,-0.4892,-0.49,-0.4969,-0.4971,-0.4973,-0.502,-0.5009,-0.5069,-0.5033,-0.501,-0.503,-0.5029,-0.5073,-0.5079,-0.5094,-0.5153,-0.5156,-0.5116,-0.5118,-0.512,-0.5121,0,0,0,0,0,0,0,-0.4888,-0.4897,-0.4987,-0.497,-0.4973,-0.4973,-0.4981,-0.502,-0.5047,-0.5012,-0.5013,-0.5021,-0.5074,-0.509,-0.5095,-0.5157,-0.5116,-0.5119,-0.5121,-0.5123,-0.5253,-0.5254,0,0,0,0,0,0,-0.4881,-0.4893,-0.4984,-0.4988,-0.4929,-0.4977,-0.4985,-0.5006,-0.5047,-0.5052,-0.5021,-0.5021,-0.5084,-0.5091,-0.5098,-0.5152,-0.512,-0.5123,-0.5125,-0.5252,-0.5253,-0.5254,0,0,0,0,0,0,-0.4879,-0.4889,-0.4982,-0.4941,-0.4953,-0.498,-0.5004,-0.5008,-0.5024,-0.5054,-0.5059,-0.5033,-0.5084,-0.5093,-0.5136,-0.5155,-0.5125,-0.5128,-0.525,-0.5252,-0.5254,-0.5262,0,0,0,0,0,0,-0.4875,-0.4889,-0.4907,-0.4941,-0.4955,-0.5019,-0.5005,-0.501,-0.5031,-0.503,-0.5066,-0.5071,-0.5084,-0.513,-0.514,-0.5159,-0.5131,-0.5249,-0.5251,-0.5253,-0.526,-0.5264,-0.5267,0,0,0,0,0,-0.4871,-0.4907,-0.4908,-0.4919,-0.4978,-0.502,-0.5028,-0.5042,-0.5032,-0.505,-0.5069,-0.507,-0.5151,-0.5135,-0.5145,-0.5166,-0.5248,-0.525,-0.5253,-0.5259,-0.5263,-0.5267,0,0,0,0,0,0,-0.4875,-0.4912,-0.4913,-0.4962,-0.4988,-0.5021,-0.5045,-0.5047,-0.5077,-0.5075,-0.5091,-0.5099,-0.5141,-0.5158,-0.5139,-0.5211,-0.5198,-0.5203,-0.5199,-0.5203,-0.5206,-0.5202,-0.5134,0,0,0,0,0,-0.4881,-0.4912,-0.4943,-0.4983,-0.4996,-0.5018,-0.5037,-0.5045,-0.5073,-0.5084,-0.5106,-0.5133,-0.5164,-0.5184,-0.5215,-0.5262,-0.5269,-0.5282,-0.5285,-0.5288,-0.5292,-0.5316,-0.5321,-0.5263,-0.5263,-0.5263,0,0,-0.4895,-0.4919,-0.4938,-0.4984,-0.5005,-0.5037,-0.5027,-0.5062,-0.5085,-0.5089,-0.5131,-0.5148,-0.5178,-0.5223,-0.5244,-0.5239,-0.5309,-0.5291,-0.5293,-0.5296,-0.5319,-0.5325,-0.5329,-0.5265,-0.5265,-0.5265,0,0,-0.4936,-0.4958,-0.4993,-0.5013,-0.5045,-0.5059,-0.5067,-0.51,-0.5111,-0.5153,-0.5156,-0.5183,-0.5238,-0.5259,-0.5277,-0.5322,-0.5324,-0.5332,-0.535,-0.5373,-0.5377,-0.5382,-0.5397,-0.5402,-0.5336,-0.5336,-0.5336,0,-0.4949,-0.4997,-0.501,-0.5044,-0.5063,-0.5067,-0.5102,-0.5122,-0.5162,-0.5175,-0.5168,-0.5234,-0.5255,-0.5304,-0.5315,-0.5329,-0.5338,-0.5328,-0.5376,-0.538,-0.5384,-0.5399,-0.5404,-0.5336,-0.5336,-0.5336,-0.5336,0,-0.5011,-0.5044,-0.5068,-0.5106,-0.5128,-0.5162,-0.5179,-0.52,-0.5205,-0.5219,-0.5261,-0.5286,-0.532,-0.5332,-0.5339,-0.5381,-0.5377,-0.5373,-0.536,-0.539,-0.5404,-0.541,-0.5337,-0.5337,-0.5337,-0.5337,0,0,-0.5059,-0.5101,-0.511,-0.5126,-0.516,-0.5185,-0.5218,-0.5251,-0.5268,-0.5295,-0.5322,-0.5367,-0.5362,-0.5382,-0.539,-0.5411,-0.5443,-0.5404,-0.5405,-0.5409,-0.549,-0.5493,-0.5499,-0.5444,-0.5445,-0.5446,-0.5487,0,-0.5103,-0.5163,-0.5174,-0.5225,-0.5255,-0.5257,-0.5286,-0.5309,-0.5323,-0.5349,-0.5363,-0.5394,-0.5386,-0.5398,-0.5418,-0.5435,-0.546,-0.5432,-0.5469,-0.547,-0.5461,-0.5507,-0.5511,-0.5548,-0.5493,-0.5494,-0.5494,0,-0.5164,-0.5191,-0.5245,-0.5272,-0.5285,-0.5311,-0.5341,-0.5366,-0.5392,-0.54,-0.5421,-0.5426,-0.5459,-0.5444,-0.5489,-0.547,-0.5485,-0.5495,-0.5497,-0.5501,-0.5484,-0.5512,-0.5561,-0.5566,-0.5503,-0.5503,-0.5502,0,-0.5192,-0.5242,-0.528,-0.5294,-0.5327,-0.5345,-0.5359,-0.5384,-0.5402,-0.5428,-0.544,-0.547,-0.5486,-0.5508,-0.552,-0.5509,-0.5564,-0.5551,-0.5571,-0.557,-0.5583,-0.5582,-0.5635,-0.5593,-0.5593,-0.5593,-0.5593,0,-0.5241,-0.5274,-0.5293,-0.5316,-0.5352,-0.5364,-0.5399,-0.5413,-0.5434,-0.546,-0.5464,-0.5488,-0.5503,-0.5528,-0.5538,-0.5572,-0.558,-0.5587,-0.5589,-0.5586,-0.5585,-0.5597,-0.5594,-0.5594,-0.5594,-0.5594,-0.5593,0,-0.5279,-0.5294,-0.5335,-0.5362,-0.537,-0.5395,-0.5418,-0.544,-0.5452,-0.5484,-0.5492,-0.5512,-0.5541,-0.5555,-0.5593,-0.5599,-0.5638,-0.5639,-0.563,-0.563,-0.565,-0.5647,-0.5712,-0.572,-0.5673,-0.5673,-0.5674,0,-0.5309,-0.5334,-0.5363,-0.538,-0.5395,-0.5423,-0.5441,-0.5453,-0.5472,-0.5501,-0.5519,-0.5549,-0.5573,-0.562,-0.5637,-0.5665,-0.5666,-0.5687,-0.5671,-0.5666,-0.5665,-0.5664,-0.5666,-0.569,-0.569,-0.5691,-0.5691,0,-0.5361,-0.5366,-0.5392,-0.542,-0.5442,-0.5464,-0.5487,-0.55,-0.5515,-0.5536,-0.5566,-0.5584,-0.5621,-0.565,-0.5679,-0.5693,-0.5694,-0.5696,-0.5702,-0.5699,-0.5693,-0.5695,-0.5637,-0.5694,-0.5694,-0.5694,-0.5694,-0.5694,-0.5396,-0.5417,-0.544,-0.5469,-0.5486,-0.5506,-0.5528,-0.5542,-0.5567,-0.5598,-0.5603,-0.5634,-0.5656,-0.5694,-0.5709,-0.5733,-0.5729,-0.5738,-0.574,-0.5742,-0.5742,-0.5688,-0.5739,-0.5739,-0.5739,-0.5738,-0.5738,0,-0.5447,-0.5461,-0.5487,-0.5517,-0.5539,-0.5537,-0.5561,-0.5579,-0.5607,-0.5627,-0.5651,-0.5684,-0.5711,-0.5729,-0.5756,-0.5772,-0.5773,-0.5779,-0.5778,-0.5781,-0.5746,-0.5737,-0.5777,-0.5777,-0.5777,-0.5777,-0.5777,-0.5777,-0.5476,-0.5512,-0.5519,-0.5562,-0.5576,-0.5607,-0.5621,-0.5638,-0.5655,-0.5691,-0.5714,-0.5725,-0.5744,-0.5772,-0.5796,-0.5801,-0.581,-0.5816,-0.582,-0.5787,-0.5783,-0.578,-0.5772,-0.5818,-0.5818,-0.5853,-0.5853,-0.5854]},{"header":{"parameterUnit":"m.s-1","parameterCategory":1,"la1":30.2991,"la2":30.254,"lo1":-89.0895,"lo2":-89.0444,"dy":0.0017,"dx":0.0017,"nx":28,"ny":28,"refTime":"2025-01-23T03:00:00:Z","depth":0,"parameterNumber":3,"parameterNumberName":"V-component_of_WINDS"},"data":[0,0,0,0,0,0,0,0,0,0,0,0,0,0,0,0,0,0,0,0,0,0,0,0,0,0,0,0,0,0,0,0,0,0,0,0,0,0,0,0,0,0,0,0,0,0,0,0,0,0,0,0,0,0,0,0,0,0,-4.3638,-4.364,0,-4.3795,-4.3797,-4.3799,-4.3752,-4.3748,-4.3745,-4.3742,-4.39,-4.3907,-4.3914,0,0,0,0,0,0,0,0,0,0,0,0,0,-4.3294,-4.3301,-4.3638,-4.364,-4.3642,-4.3795,-4.3797,-4.3799,-4.3752,-4.3748,-4.3744,-4.374,-4.3897,-4.3906,-4.3914,0,0,0,0,0,0,0,0,0,0,0,0,0,-4.3447,-4.3303,-4.3638,-4.3637,-4.3639,-4.3795,-4.3797,-4.38,-4.3753,-4.3748,-4.3743,-4.3739,-4.3894,-4.3905,-4.3916,-4.4081,0,0,-4.3949,-4.3954,0,0,0,0,0,0,0,0,-4.3438,-4.3459,-4.3635,-4.3638,-4.3639,-4.3749,-4.3734,-4.3894,-4.3754,-4.3709,-4.3742,-4.3736,-4.3853,-4.3867,-4.3907,-4.4088,-4.4095,-4.395,-4.3956,-4.3961,-4.3964,0,0,0,0,0,0,0,-4.3428,-4.3452,-4.37,-4.3638,-4.364,-4.3628,-4.3644,-4.3764,-4.3807,-4.3713,-4.371,-4.3729,-4.3853,-4.3897,-4.3911,-4.4097,-4.3949,-4.3959,-4.3966,-4.397,-4.4421,-4.4426,0,0,0,0,0,0,-4.3416,-4.3444,-4.3695,-4.3705,-4.3525,-4.3638,-4.3656,-4.3719,-4.3805,-4.3814,-4.3733,-4.3727,-4.3881,-4.3898,-4.3916,-4.4114,-4.3961,-4.3971,-4.3977,-4.4415,-4.4422,-4.4428,0,0,0,0,0,0,-4.3409,-4.3439,-4.3689,-4.3574,-4.3605,-4.3649,-4.372,-4.3724,-4.3768,-4.3821,-4.3828,-4.377,-4.3878,-4.3901,-4.404,-4.4119,-4.3976,-4.3986,-4.4409,-4.4417,-4.4425,-4.4513,0,0,0,0,0,0,-4.3399,-4.3437,-4.3501,-4.3576,-4.3611,-4.3812,-4.3725,-4.3731,-4.3787,-4.378,-4.3857,-4.3865,-4.3875,-4.4024,-4.4051,-4.4132,-4.3994,-4.4402,-4.4413,-4.4422,-4.4503,-4.4523,-4.4541,0,0,0,0,0,-4.3387,-4.3519,-4.3504,-4.3535,-4.3692,-4.3817,-4.3837,-4.3847,-4.3794,-4.3858,-4.3892,-4.3863,-4.4106,-4.4039,-4.4069,-4.4154,-4.4397,-4.4409,-4.4421,-4.4495,-4.4519,-4.454,0,0,0,0,0,0,-4.3452,-4.3529,-4.3513,-4.3674,-4.3739,-4.3808,-4.389,-4.3872,-4.3953,-4.3943,-4.395,-4.3968,-4.4111,-4.4146,-4.407,-4.4318,-4.4244,-4.4262,-4.429,-4.4313,-4.4331,-4.432,-4.4003,0,0,0,0,0,-4.3485,-4.358,-4.3642,-4.3778,-4.3811,-4.3845,-4.39,-4.3902,-4.3969,-4.3996,-4.404,-4.4106,-4.4197,-4.4257,-4.4344,-4.4508,-4.4524,-4.4581,-4.46,-4.4615,-4.4631,-4.4719,-4.4745,-4.4468,-4.4468,-4.4468,0,0,-4.3554,-4.3608,-4.3667,-4.3792,-4.3843,-4.394,-4.3869,-4.3975,-4.4047,-4.4012,-4.4147,-4.4181,-4.4255,-4.4408,-4.4477,-4.4441,-4.4711,-4.463,-4.4642,-4.465,-4.4734,-4.4761,-4.4784,-4.4476,-4.4475,-4.4473,0,0,-4.3729,-4.378,-4.3898,-4.3951,-4.4029,-4.405,-4.4079,-4.4151,-4.4173,-4.4308,-4.4284,-4.4369,-4.4526,-4.458,-4.4627,-4.4823,-4.4799,-4.4851,-4.4947,-4.5033,-4.5055,-4.5075,-4.5143,-4.5168,-4.4866,-4.4867,-4.4867,0,-4.3804,-4.3952,-4.3961,-4.407,-4.4125,-4.4098,-4.4217,-4.4267,-4.4369,-4.4407,-4.4366,-4.4563,-4.461,-4.4774,-4.4822,-4.4862,-4.4894,-4.4842,-4.5052,-4.5071,-4.5089,-4.5155,-4.5181,-4.4872,-4.4872,-4.4871,-4.4871,0,-4.404,-4.4143,-4.4228,-4.4329,-4.4393,-4.4507,-4.4532,-4.4596,-4.4592,-4.4617,-4.4755,-4.4812,-4.4909,-4.4948,-4.4945,-4.5112,-4.5087,-4.5049,-4.4975,-4.5121,-4.5183,-4.5208,-4.4881,-4.4879,-4.4877,-4.4875,0,0,-4.4261,-4.4364,-4.4396,-4.4441,-4.4525,-4.4603,-4.4715,-4.4811,-4.4866,-4.4937,-4.503,-4.5163,-4.5128,-4.5183,-4.5185,-4.5261,-4.5411,-4.5213,-4.5215,-4.5247,-4.5597,-4.5624,-4.5654,-4.5396,-4.5401,-4.5404,-4.559,0,-4.4443,-4.464,-4.4651,-4.4829,-4.4923,-4.4899,-4.4996,-4.5058,-4.5084,-4.5167,-4.5196,-4.529,-4.5237,-4.527,-4.5344,-4.5377,-4.5481,-4.5364,-4.5481,-4.5485,-4.5463,-4.5686,-4.5716,-4.5889,-4.5614,-4.5619,-4.5622,0,-4.4682,-4.4761,-4.4949,-4.5019,-4.5059,-4.5146,-4.5235,-4.5315,-4.5383,-4.5397,-4.5458,-4.545,-4.5562,-4.5485,-4.564,-4.556,-4.5608,-4.5632,-4.5639,-4.5649,-4.5562,-4.5702,-4.5944,-4.597,-4.566,-4.5657,-4.5654,0,-4.4822,-4.4976,-4.5108,-4.5148,-4.5233,-4.5295,-4.5333,-4.5397,-4.5454,-4.5531,-4.5567,-4.5656,-4.5705,-4.5774,-4.5789,-4.5731,-4.5944,-4.5868,-4.5957,-4.5957,-4.6003,-4.6,-4.6255,-4.6036,-4.6035,-4.6035,-4.6034,0,-4.5024,-4.514,-4.5173,-4.5254,-4.5383,-4.5394,-4.552,-4.5554,-4.5611,-4.5698,-4.5682,-4.5763,-4.5779,-4.5863,-4.5876,-4.6002,-4.6024,-4.6038,-4.604,-4.6039,-4.6037,-4.607,-4.6058,-4.6042,-4.604,-4.6039,-4.6038,0,-4.5203,-4.523,-4.5372,-4.5442,-4.5462,-4.5553,-4.5612,-4.5689,-4.5714,-4.5823,-4.585,-4.5888,-4.5987,-4.6009,-4.6126,-4.6134,-4.6283,-4.6274,-4.626,-4.6259,-4.6348,-4.6339,-4.6633,-4.6672,-4.6427,-4.643,-4.6432,0,-4.533,-4.5418,-4.5497,-4.5554,-4.5596,-4.5688,-4.5746,-4.576,-4.5821,-4.5905,-4.5972,-4.6069,-4.6147,-4.6305,-4.6343,-4.6432,-4.6424,-4.6521,-4.6437,-4.6433,-4.6424,-4.6419,-4.6427,-4.6537,-4.6539,-4.6541,-4.6543,0,-4.5552,-4.556,-4.5645,-4.5735,-4.5805,-4.5876,-4.5944,-4.5991,-4.6014,-4.6083,-4.6184,-4.6244,-4.6364,-4.646,-4.6549,-4.6587,-4.6569,-4.6569,-4.6595,-4.6594,-4.6583,-4.6589,-4.6303,-4.6562,-4.656,-4.6559,-4.6558,-4.6557,-4.5708,-4.5785,-4.5853,-4.5947,-4.6,-4.6063,-4.6139,-4.6174,-4.6258,-4.6357,-4.636,-4.6469,-4.6534,-4.6653,-4.6696,-4.6781,-4.6751,-4.6788,-4.6797,-4.6806,-4.6813,-4.657,-4.6797,-4.6797,-4.6796,-4.6796,-4.6796,0,-4.5928,-4.597,-4.6057,-4.6153,-4.6227,-4.6205,-4.6278,-4.6341,-4.6438,-4.6501,-4.6579,-4.6694,-4.6787,-4.6832,-4.6923,-4.6982,-4.6976,-4.7006,-4.7001,-4.701,-4.6836,-4.6804,-4.7009,-4.7009,-4.7009,-4.7009,-4.7009,-4.7009,-4.6051,-4.6181,-4.6197,-4.6352,-4.6393,-4.6501,-4.6545,-4.6603,-4.6653,-4.6783,-4.686,-4.6889,-4.6944,-4.704,-4.7123,-4.7134,-4.7168,-4.7202,-4.7208,-4.7044,-4.7022,-4.7002,-4.6972,-4.7209,-4.7209,-4.7375,-4.7377,-4.7378]}]]